TimePDT,TemperatureF,Dew PointF,Humidity,Sea Level PressureIn,VisibilityMPH,Wind Direction,Wind SpeedMPH,Gust SpeedMPH,PrecipitationIn,Events,Conditions,WindDirDegrees,DateUTC
12:53 AM,48.0,46.0,93,29.99,9.0,WSW,18.4,21.9,N/A,,Overcast,240,2013-04-01 07:53:00
1:53 AM,48.0,46.0,93,30.01,10.0,WSW,11.5,-,N/A,,Overcast,240,2013-04-01 08:53:00
2:53 AM,48.2,46.4,93,30.00,10.0,WSW,12.7,-,N/A,,Overcast,240,2013-04-01 09:53:00
3:53 AM,48.2,46.4,93,30.00,10.0,WSW,10.4,-,N/A,,Overcast,240,2013-04-01 10:53:00
4:53 AM,48.0,46.0,93,30.01,10.0,SW,15.0,-,N/A,,Overcast,230,2013-04-01 11:53:00
5:53 AM,48.2,46.4,93,30.01,10.0,WSW,12.7,19.6,N/A,,Overcast,240,2013-04-01 12:53:00
6:53 AM,48.0,46.0,93,30.03,10.0,WSW,8.1,-,N/A,,Overcast,240,2013-04-01 13:53:00
7:53 AM,48.9,46.0,90,30.04,10.0,SW,8.1,-,N/A,,Overcast,230,2013-04-01 14:53:00
8:53 AM,50.0,46.9,89,30.06,10.0,SW,8.1,-,N/A,,Overcast,220,2013-04-01 15:53:00
9:53 AM,50.0,46.9,89,30.08,10.0,SW,9.2,-,N/A,,Overcast,220,2013-04-01 16:53:00
10:36 AM,51.8,46.4,82,30.07,10.0,SSW,11.5,-,N/A,,Overcast,210,2013-04-01 17:36:00
10:53 AM,51.1,46.0,83,30.08,10.0,SW,13.8,-,N/A,,Overcast,220,2013-04-01 17:53:00
11:53 AM,52.0,46.0,80,30.10,10.0,SW,13.8,-,N/A,,Overcast,230,2013-04-01 18:53:00
12:53 PM,53.6,46.4,77,30.09,10.0,SW,13.8,-,N/A,,Overcast,220,2013-04-01 19:53:00
1:53 PM,53.1,46.9,80,30.10,10.0,SW,12.7,-,N/A,,Overcast,230,2013-04-01 20:53:00
2:06 PM,53.6,46.4,77,30.10,10.0,WSW,13.8,19.6,N/A,,Overcast,240,2013-04-01 21:06:00
2:24 PM,55.4,46.4,72,30.09,10.0,WSW,11.5,-,N/A,,Overcast,240,2013-04-01 21:24:00
2:53 PM,57.2,44.6,63,30.09,10.0,WSW,13.8,23.0,N/A,,Mostly Cloudy,250,2013-04-01 21:53:00
3:06 PM,57.2,44.6,63,30.08,10.0,WSW,15.0,25.3,N/A,,Scattered Clouds,240,2013-04-01 22:06:00
3:53 PM,59.0,44.1,58,30.09,10.0,SW,13.8,20.7,N/A,,Clear,230,2013-04-01 22:53:00
4:53 PM,57.9,43.0,58,30.09,10.0,WSW,12.7,23.0,N/A,,Clear,240,2013-04-01 23:53:00
5:53 PM,55.9,44.1,64,30.10,10.0,WSW,13.8,23.0,N/A,,Clear,240,2013-04-02 00:53:00
6:53 PM,52.0,43.0,71,30.12,10.0,WSW,15.0,25.3,N/A,,Mostly Cloudy,240,2013-04-02 01:53:00
7:02 PM,51.8,42.8,71,30.11,10.0,WSW,12.7,20.7,N/A,,Scattered Clouds,250,2013-04-02 02:02:00
7:13 PM,51.8,44.6,76,30.11,10.0,WSW,13.8,-,N/A,,Mostly Cloudy,250,2013-04-02 02:13:00
7:53 PM,50.0,43.0,77,30.12,10.0,WSW,16.1,24.2,N/A,,Overcast,250,2013-04-02 02:53:00
8:53 PM,50.0,44.1,80,30.13,10.0,WSW,17.3,-,N/A,,Overcast,240,2013-04-02 03:53:00
9:42 PM,48.2,44.6,87,30.13,10.0,SW,12.7,18.4,N/A,,Overcast,230,2013-04-02 04:42:00
9:53 PM,48.9,44.1,83,30.14,10.0,WSW,12.7,-,N/A,,Overcast,240,2013-04-02 04:53:00
10:45 PM,48.2,44.6,87,30.14,10.0,SW,9.2,-,N/A,,Overcast,230,2013-04-02 05:45:00
10:53 PM,48.0,44.1,86,30.15,10.0,WSW,9.2,-,N/A,,Overcast,240,2013-04-02 05:53:00
11:53 PM,48.0,44.1,86,30.16,10.0,SW,10.4,-,N/A,,Overcast,230,2013-04-02 06:53:00